Eagle, CO

7:19 PM MDT on April 25, 2017 (GMT -0600)
Eagle County Regional

Weather History for KEGE - September, 2012

Change the Weather History Date:

Saturday, September 8, 2012

  Actual Average Record
Temperature  
Mean Temperature 62 °F -  
Max Temperature 86 °F 78 °F 90 °F (1979)
Min Temperature 39 °F 40 °F 26 °F (1948)
Degree Days  
Heating Degree Days 2    
Growing Degree Days 12 (Base 50)    
Moisture  
Dew Point 29 °F    
Average Humidity 43    
Maximum Humidity 75    
Minimum Humidity 10    
Precipitation  
Precipitation 0.00 in - - ()
Sea Level Pressure  
Sea Level Pressure 30.35 in    
Wind  
Wind Speed 1 mph (ESE)    
Max Wind Speed 6 mph    
Max Gust Speed -    
Visibility 10 miles    
Events      
Averages and records for this station are not official NWS values.
T = Trace of Precipitation, MM = Missing Value Source: NWS Daily Summary

Daily Weather History Graph

Daily Weather History Graph

Search for Another Location

Airport or City:

Trip Planner

Search our weather history database for the weather conditions in past years. The results will help you decide how hot, cold, wet, or windy it might be!

Date:

Astronomy

Sep. 08, 2012 Rise Set
Actual Time 6:42 AM MDT 7:26 PM MDT
Civil Twilight 6:15 AM MDT 7:53 PM MDT
Nautical Twilight 5:43 AM MDT 8:26 PM MDT
Astronomical Twilight 5:09 AM MDT 8:59 PM MDT
Moon No Moon Rise 2:25 PM MDT (9/8)
Length of Visible Light 13h 38m
Length of Day
12h 43m
Waning Gibbous, 48% of the Moon is Illuminated
Sep 8
Waning Gibbous
Sep 15
New
Sep 22
First Quarter
Sep 29
Full
Oct 8
Last Quarter

Hourly Weather History & Observations

Time (MDT) Temp. Windchill Dew Point Humidity Pressure Visibility Wind Dir Wind Speed Gust Speed Precip Events Conditions
12:15 AM 51.8 °F - 28.4 °F 41% 30.39 in 10.0 mi Calm Calm - N/A   Clear
12:55 AM 51.8 °F - 30.2 °F 44% 30.40 in 10.0 mi ESE 4.6 mph - N/A   Clear
1:15 AM 48.2 °F - 30.2 °F 50% 30.39 in 10.0 mi Calm Calm - N/A   Clear
1:35 AM 48.2 °F - 30.2 °F 50% 30.40 in 10.0 mi Calm Calm - N/A   Clear
1:55 AM 48.2 °F - 30.2 °F 50% 30.40 in 10.0 mi Calm Calm - N/A   Clear
2:15 AM 46.4 °F 45.2 °F 30.2 °F 53% 30.40 in 10.0 mi ESE 3.5 mph - N/A   Clear
2:35 AM 46.4 °F - 30.2 °F 53% 30.40 in 10.0 mi Calm Calm - N/A   Clear
2:55 AM 46.4 °F - 30.2 °F 53% 30.40 in 10.0 mi Calm Calm - N/A   Clear
3:15 AM 44.6 °F - 30.2 °F 57% 30.40 in 10.0 mi Calm Calm - N/A   Clear
3:35 AM 44.6 °F - 30.2 °F 57% 30.40 in 10.0 mi Calm Calm - N/A   Clear
3:55 AM 44.6 °F 43.1 °F 30.2 °F 57% 30.41 in 10.0 mi ESE 3.5 mph - N/A   Clear
4:35 AM 42.8 °F 41.1 °F 30.2 °F 61% 30.41 in 10.0 mi ESE 3.5 mph - N/A   Clear
4:55 AM 42.8 °F - 30.2 °F 61% 30.42 in 10.0 mi Calm Calm - N/A   Clear
5:15 AM 42.8 °F - 32.0 °F 66% 30.43 in 10.0 mi Calm Calm - N/A   Clear
5:35 AM 42.8 °F - 32.0 °F 66% 30.43 in 10.0 mi Calm Calm - N/A   Clear
5:55 AM 41.0 °F 39.0 °F 30.2 °F 65% 30.44 in 10.0 mi South 3.5 mph - N/A   Clear
6:15 AM 41.0 °F - 32.0 °F 70% 30.44 in 10.0 mi Calm Calm - N/A   Clear
6:35 AM 39.2 °F 35.9 °F 30.2 °F 70% 30.45 in 10.0 mi East 4.6 mph - N/A   Clear
6:51 AM 39.2 °F 35.0 °F 32.0 °F 75% 30.46 in 10.0 mi Variable 5.8 mph - N/A   Clear
7:57 AM 42.8 °F - 33.8 °F 70% 30.47 in 10.0 mi Calm Calm - N/A   Clear
8:45 AM 46.4 °F - 33.8 °F 62% 30.47 in 10.0 mi Calm Calm - N/A   Clear
9:46 AM 53.6 °F - 33.8 °F 47% 30.45 in 10.0 mi Calm Calm - N/A   Clear
10:54 AM 60.8 °F - 35.6 °F 39% 30.43 in 10.0 mi Calm Calm - N/A   Clear
11:50 AM 66.2 °F - 35.6 °F 32% 30.40 in 10.0 mi Calm Calm - N/A   Clear
1:59 PM 75.2 °F - 21.2 °F 13% 30.32 in 10.0 mi WNW 4.6 mph - N/A   Partly Cloudy
2:50 PM 77.0 °F - 21.2 °F 12% 30.30 in 10.0 mi West 4.6 mph - N/A   Partly Cloudy
3:50 PM 86.0 °F - 71.6 °F 62% 29.86 in 10.0 mi Variable 5.8 mph - N/A   Partly Cloudy
4:50 PM 80.6 °F - 19.4 °F 10% 30.25 in 10.0 mi NNW 3.5 mph - N/A   Partly Cloudy
5:50 PM 80.6 °F - 19.4 °F 10% 30.24 in 10.0 mi Calm Calm - N/A   Partly Cloudy
6:50 PM 78.8 °F - 21.2 °F 12% 30.23 in 10.0 mi Calm Calm - N/A   Partly Cloudy
7:15 PM 80.6 °F - 21.2 °F 11% 30.23 in 10.0 mi WNW 3.5 mph - N/A   Clear
7:35 PM 73.4 °F - 21.2 °F 14% 30.23 in 10.0 mi Calm Calm - N/A   Clear
8:15 PM 66.2 °F - 28.4 °F 24% 30.26 in 10.0 mi Calm Calm - N/A   Clear
8:35 PM 64.4 °F - 28.4 °F 26% 30.27 in 10.0 mi ENE 4.6 mph - N/A   Clear
8:55 PM 64.4 °F - 28.4 °F 26% 30.28 in 10.0 mi Calm Calm - N/A   Clear
9:15 PM 64.4 °F - 26.6 °F 24% 30.29 in 10.0 mi Calm Calm - N/A   Clear
9:35 PM 60.8 °F - 26.6 °F 27% 30.29 in 10.0 mi SE 4.6 mph - N/A   Clear
10:15 PM 57.2 °F - 26.6 °F 31% 30.31 in 10.0 mi ESE 5.8 mph - N/A   Clear
10:55 PM 55.4 °F - 26.6 °F 33% 30.32 in 10.0 mi East 4.6 mph - N/A   Clear
11:15 PM 55.4 °F - 26.6 °F 33% 30.33 in 10.0 mi SE 4.6 mph - N/A   Clear
11:35 PM 53.6 °F - 26.6 °F 35% 30.33 in 10.0 mi Calm Calm - N/A   Clear
11:55 PM 53.6 °F - 24.8 °F 33% 30.33 in 10.0 mi Calm Calm - N/A   Clear